EHI
0 0 0 0 0 0 0 0 0 0 0 0 0 0 0 0 0 0 0 0 0 0 0 0 0 0 0 0 0 0 0 0 0 0 0 0 0 0 0 0 0 0 0 0
0 0 0 0 0 0 0 0 0 0 0 0 0 0 0 0 0 0 0 0 0 0 0 0 0 0 0 0 0 0 0 0 0 0 0 0 0 0 0 0 0 0 0 0
0 0 0 0 0 0 0 0 0 0 0 0 0 0 0 0 0 0 0 0 0 0 0 0 0 0 0 0 0 0 0 0 0 0 0 0 0 0 0 0 0 0 0 0
0 0 0 0 0 0 0 0 0 0 0 0 0 0 0 0 0 0 0 0 0 0 0 0 0 0 0 0 0 0 0 0 0 0 0 0 0 0 0 0 0 0 0 0
0 0 0 0 0 0 0 0 0 0 0 0 0 0 0 0 0 0 0 0 0 0 0 0 0 0 0 0 0 0 0 0 0 0 0 0 0 0 0 0 0 0 0 0
0 0 0 0 0 0 0 0 0 0 0 0 0 0 0 0 0 0 0 0 0 0 0 0 0 0 0 0 0 0 0 0 0 0 0 0 0 0 0 0 0 0 0 0
0 0 0 0 0 0 0 0 0 0 0 0 0 0 0 0 0 0 0 0 0 0 0 0 0 0 0 0 0 0 0 0 0 0 0 0 0 0 0 0 0 0 0 0
0 0 0 0 0 0 0 0 0 0 0 0 0 0 0 0 0 0 0 0 0 0 0 0 0 0 0 0 0 0 0 0 0 0 0 0 0 0 0 0 0 0 0 0
0 0 0 0 0 0 0 0 0 0 0 0 0 0 0 0 0 0 0 0 0 0 0 0 0 0 0 0 0 0 0 0 0 0 0 0 0 0 0 0 0 0 0 0
0 0 0 0 0 0 0 0 0 0 0 0 0 0 0 0 0 0 0 0 0 0 0 0 0 0 0 0 0 0 0 0 0 0 0 0 0 0 0 0 0 0 0 0
0 0 0 0 0 0 0 0 0 0 0 0 0 0 0 0 0 0 0 0 0 0 0 0 0 0 0 0 0 0 0 0 0 0 0 0 0 0 0 0 0 0 0 0
0 0 0 0 0 0 0 0 0 0 0 0 0 0 0 0 0 0 0 0 0 0 0 0 0 0 0 0 0 0 0 0 0 0 0 0 0 0 0 0 0 0 0 0
0 0 0 0 0 0 0 0 0 0 0 0 0 0 0 0 0 0 0 0 0 0 0 0 0 0 0 0 0 0 0 0 0 0 0 0 0 0 0 0 0 0 0 0
0 0 0 0 0 0 0 0 0 0 0 0 0 0 0 0 0 0 0 0 0 0 0 0 0 0 0 0 0 0 0 0 0 0 0 0 0 0 0 0 0 0 0 0
0 0 0 0 0 0 0 0 0 0 0 0 0 0 0 0 0 0 0 0 0 0 0 0 0 0 0 0 0 0 0 0 0 0 0 0 0 0 0 0 0 0 0 0
0 0 0 0 0 0 0 0 0 0 0 0 0 0 0 0 0 0 0 0 0 0 0 0 0 0 0 0 0 0 0 0 0 0 0 0 0 0 0 0 0 0 0 0
0 0 0 0 0 0 0 0 0 0 0 0 0 0 0 0 0 0 0 0 0 0 0 0 0 0 0 0 0 0 0 0 0 0 0 0 0 0 0 0 0 0 0 0
0 0 0 0 0 0 0 0 0 0 0 0 0 0 0 0 0 0 0 0 0 0 0 0 0 0 0 0 0 0 0 0 0 0 0 0 0 0 0 0 0 0 0 0
0 0 0 0 0 0 0 0 0 0 0 0 0 0 0 0 0 0 0 0 0 0 0 0 0 0 0 0 0 0 0 0 0 0 0 0 0 0 0 0 0 0 0 0
0 0 0 0 0 0 0 0 0 0 0 0 0 0 0 0 0 0 0 0 0 0 0 0 0 0 0 0 0 0 0 0 0 0 0 0 0 0 0 0 0 0 0 0
0 0 0 0 0 0 0 0 0 0 0 0 0 0 0 0 0 0 0 0 0 0 0 0 0 0 0 0 0 0 0 0 0 0 0 0 0 0 0 0 0 0 0 0
0 0 0 0 0 0 0 0 0 0 0 0 0 0 0 0 0 0 0 0 0 0 0 0 0 0 0 0 0 0 0 0 0 0 0 0 0 0 0 0 0 0 0 0
0 0 0 0 0 0 0 0 0 0 0 0 0 0 0 0 0 0 0 0 0 0 0 0 0 0 0 0 0 0 0 0 0 0 0 0 0 0 0 0 0 0 0 0
0 0 0 0 0 0 0 0 0 0 0 0 0 0 0 0 0 0 0 0 0 0 0 0 0 0 0 0 0 0 0 0 0 0 0 0 0 0 0 0 0 0 0 0
0 0 0 0 0 0 0 0 0 0 0 0 0 0 0 0 0 0 0 0 0 0 0 0 0 0 0 0 0 0 0 0 0 0 0 0 0 0 0 0 0 0 0 0
0 0 0 0 0 0 0 0 0 0 0 0 0 0 0 0 0 0 0 0 0 0 0 0 0 0 0 0 0 0 0 0 0 0 0 0 0 0 0 0 0 0 0 0
0 0 0 0 0 0 0 0 0 0 0 0 0 0 0 0 0 0 0 0 0 0 0 0 0 0 0 0 0 0 0 0 0 0 0 0 0 0 0 0 0 0 0 0
Wind_Speed
5 5 3 5 5 5 7 7 6 6 5 6 3 2 2 1 1 1 2 3 3 3 3 3 4 4 5 5 6 6 6 6 5 5 6 6 6 6 6 6 6 6 5 5
4 5 4 7 7 6 7 6 8 7 9 5 2 1 1 2 2 2 3 3 3 3 3 4 4 4 5 5 6 6 6 6 6 6 6 6 6 6 6 6 6 6 5 6
4 2 4 7 5 6 4 4 5 7 7 2 2 2 2 2 2 3 3 3 3 3 3 4 4 4 5 5 6 6 6 6 6 6 6 7 7 7 7 6 6 6 6 5
3 3 6 5 1 3 4 3 4 4 3 2 2 3 2 2 2 3 3 3 3 3 3 3 4 4 4 5 5 5 6 6 6 6 7 7 6 6 7 6 6 6 6 6
2 4 7 2 1 2 3 4 3 4 4 3 3 3 2 2 1 2 2 2 2 3 3 3 4 4 4 5 5 5 6 6 6 6 7 7 7 7 6 6 6 6 6 6
2 3 6 3 1 0 1 3 1 1 2 2 2 2 3 2 3 3 2 2 2 3 3 4 4 3 4 5 5 6 6 7 6 6 6 6 7 7 6 6 6 7 7 6
4 5 6 1 1 1 2 4 1 1 1 1 2 3 2 2 3 2 2 2 2 3 3 3 4 3 4 5 6 6 6 7 7 6 6 6 6 6 6 6 6 6 7 6
3 5 6 1 2 3 3 1 1 1 1 2 3 3 3 3 3 3 3 3 2 3 3 3 3 3 4 5 6 6 6 7 7 6 6 6 5 6 5 5 6 6 6 6
4 5 1 3 3 2 0 1 1 2 2 2 3 3 3 3 3 3 3 2 2 3 4 4 3 3 4 6 5 5 6 6 6 7 6 6 5 5 5 4 4 5 5 5
2 3 1 2 1 1 1 2 2 2 2 2 3 4 4 4 3 3 3 3 2 3 3 4 4 4 4 5 5 5 6 6 6 6 6 5 5 4 4 4 4 5 5 5
3 3 2 1 1 1 2 2 2 2 2 3 3 4 4 3 3 3 3 3 2 3 4 5 4 5 5 5 4 5 6 6 6 6 6 5 5 4 5 4 4 5 4 5
4 3 2 3 1 1 1 2 3 3 3 3 3 3 3 3 3 3 3 3 3 3 4 5 5 5 5 4 4 4 5 5 5 5 5 5 5 5 8 8 10 11 10 8
2 1 1 2 2 1 1 2 3 3 3 3 3 2 3 3 3 3 3 3 4 4 5 5 5 5 5 4 4 4 5 5 5 5 5 5 5 5 6 7 10 11 11 11
1 0 1 1 2 2 2 2 3 3 3 2 2 2 2 3 3 3 4 4 4 4 5 5 5 6 5 4 5 5 5 7 6 4 4 4 5 5 5 6 6 5 8 11
1 1 2 2 2 2 2 2 3 3 3 3 2 2 3 3 4 4 4 4 4 4 5 5 5 6 5 4 5 5 5 4 4 4 4 5 5 5 4 5 5 5 4 6
1 1 1 2 3 3 2 2 3 4 3 3 3 3 3 3 4 4 4 3 4 5 5 5 6 6 5 5 5 5 4 8 7 5 4 4 4 4 4 4 4 4 4 4
2 2 2 3 3 3 3 3 3 4 4 4 4 4 3 3 4 5 5 4 4 5 5 6 6 6 5 5 5 4 4 6 9 6 4 4 4 4 4 4 4 4 4 6
4 4 3 3 3 4 4 4 3 4 4 4 3 3 3 3 5 6 5 5 5 6 6 6 5 5 5 5 4 4 4 4 4 4 4 4 4 4 4 4 4 5 4 5
3 3 3 3 3 3 3 4 4 3 3 3 3 3 4 4 5 5 5 4 5 7 6 5 8 6 5 6 6 4 4 4 4 4 4 6 6 4 4 4 4 4 4 4
2 2 2 2 2 2 3 3 3 3 3 2 3 4 5 5 4 4 5 5 5 5 5 6 6 5 5 6 7 4 4 4 4 4 4 4 4 4 4 4 4 4 4 4
3 2 2 2 3 3 3 3 3 3 3 3 3 4 5 6 4 4 4 6 5 5 5 8 5 4 4 6 7 4 4 4 4 4 4 4 4 4 4 4 4 4 4 4
3 2 3 2 2 3 3 2 3 3 3 3 4 4 5 5 5 5 5 5 5 8 5 4 4 7 8 8 4 4 4 4 4 4 4 4 4 4 4 4 4 4 4 4
2 2 2 2 3 3 3 3 3 3 4 4 4 5 5 5 4 4 5 4 4 8 6 4 7 11 11 6 3 4 4 4 4 4 4 4 4 4 4 5 5 4 4 4
2 2 2 2 2 2 3 3 3 3 4 4 5 5 4 4 4 3 4 7 10 10 5 8 12 12 10 4 3 4 4 4 4 4 4 4 4 4 4 4 5 4 4 5
2 2 2 2 2 3 3 3 3 3 4 3 4 4 3 3 4 4 4 5 9 9 5 8 11 11 6 4 4 4 4 4 5 4 4 4 4 4 4 4 4 5 5 5
2 2 2 3 3 2 2 2 3 3 3 4 4 3 3 3 4 4 4 4 6 8 6 4 5 7 4 4 4 5 4 5 6 5 4 5 5 5 5 5 6 5 5 5
2 1 2 2 2 2 2 2 3 3 3 4 5 4 3 3 3 4 4 4 4 4 4 4 4 4 4 4 5 5 4 4 4 4 4 4 4 5 5 6 5 5 5 5
Wind_Direction
265 282 271 250 240 205 206 222 232 255 266 280 292 308 322 350 359 352 340 338 338 332 327 334 342 342 341 337 336 334 328 324 323 323 325 324 322 321 319 315 310 303 296 285
273 254 263 274 258 227 226 237 246 267 276 278 287 337 344 336 322 305 306 311 316 325 333 335 338 336 336 331 330 330 325 322 324 326 326 324 321 319 319 317 313 308 298 293
270 272 302 272 243 205 204 216 209 233 249 310 333 312 285 287 294 293 295 305 316 324 326 329 332 336 331 326 327 327 325 324 327 328 326 323 322 323 320 315 310 306 303 298
279 319 254 244 70 158 185 230 218 240 283 314 299 303 307 287 276 295 310 323 325 326 327 328 332 335 327 324 324 326 325 324 328 328 323 320 321 320 316 312 310 306 303 298
245 264 268 244 158 134 180 272 236 234 276 311 328 320 318 347 10 323 320 320 320 323 320 323 327 326 326 326 328 328 326 324 324 322 319 319 319 316 313 313 309 306 302 298
235 247 254 247 131 67 106 279 332 176 252 294 344 296 290 13 17 2 354 347 335 330 327 324 322 329 329 324 326 324 320 317 315 313 312 311 310 309 310 308 304 307 305 299
234 245 261 259 221 134 178 254 355 21 307 303 253 250 288 335 337 337 336 331 327 322 318 315 320 327 319 319 317 316 317 316 315 313 310 305 305 307 310 310 312 312 309 306
207 229 251 128 122 177 219 353 20 353 328 298 282 300 313 316 317 324 324 321 322 317 312 313 317 319 315 311 310 316 317 316 315 314 311 311 310 309 310 312 314 313 312 312
196 216 184 151 169 207 70 308 310 315 310 298 289 289 298 300 295 297 298 302 306 303 305 309 314 318 307 305 312 315 317 316 314 314 313 312 309 311 312 313 315 315 316 315
259 260 225 188 195 298 292 270 291 297 290 280 274 277 283 289 292 292 291 292 296 301 305 307 311 311 299 304 310 311 312 312 312 314 316 316 313 311 311 312 311 313 315 315
247 269 301 238 202 266 299 313 310 304 290 281 273 275 276 279 283 286 298 301 301 293 293 297 306 304 305 309 310 309 308 308 311 313 312 313 312 306 304 292 299 303 304 303
230 224 221 265 306 294 280 288 292 297 298 289 269 273 282 279 280 285 292 295 297 295 295 298 302 300 302 304 305 304 308 311 311 311 310 312 311 311 312 309 311 307 306 307
228 294 252 270 315 352 291 292 300 289 281 287 289 281 283 281 288 292 294 294 292 292 294 296 299 299 302 304 303 299 299 304 306 307 308 311 313 314 315 316 314 315 316 317
224 16 284 279 298 319 307 305 307 300 291 284 281 284 284 286 295 294 291 291 293 295 296 296 298 298 301 302 302 300 298 302 305 300 301 303 305 306 308 313 318 316 316 322
217 217 233 279 309 316 318 320 315 305 304 304 296 286 285 287 290 292 296 301 303 301 300 301 300 302 309 306 302 296 294 293 292 294 297 299 302 304 306 309 310 312 317 323
257 263 251 273 288 299 309 302 290 292 299 298 295 291 288 285 286 290 293 297 297 297 299 301 299 303 308 305 303 297 291 300 304 299 297 300 302 305 306 309 311 314 318 322
187 241 252 273 277 282 280 274 271 279 288 288 287 293 299 298 296 295 296 297 288 285 289 291 294 301 302 297 295 296 296 299 305 307 303 302 302 301 303 303 304 306 308 312
217 225 224 236 250 267 279 281 279 281 280 285 293 295 290 285 285 291 297 303 302 297 291 289 293 300 300 296 290 288 293 297 299 299 301 301 303 300 299 302 305 305 307 311
232 237 244 249 247 249 261 269 273 275 279 282 285 281 277 275 279 289 296 299 298 298 300 298 309 315 306 301 306 292 294 298 299 298 297 304 310 309 305 300 301 305 308 311
247 253 256 263 262 256 263 270 273 275 274 273 277 283 287 286 286 289 291 284 275 275 292 304 303 296 297 297 306 296 293 293 296 299 299 297 299 301 301 301 298 299 302 303
246 256 262 265 274 275 269 267 266 271 277 270 264 271 278 286 287 284 287 291 293 291 298 306 309 302 302 304 303 295 290 291 293 296 299 299 299 299 299 300 301 300 300 300
237 243 254 263 271 279 279 270 263 267 273 272 270 272 279 286 291 286 270 267 290 307 312 300 299 306 311 310 301 298 296 297 296 295 296 298 300 301 301 301 299 298 298 299
237 242 252 259 264 275 283 272 262 261 264 267 269 269 268 273 278 284 293 291 291 304 310 301 308 313 316 316 308 302 301 302 302 301 297 295 293 293 293 295 294 295 296 295
246 252 257 265 271 277 283 283 276 269 263 265 263 261 264 278 285 269 271 301 311 312 310 309 316 318 320 321 312 306 302 300 298 297 295 292 289 288 288 289 291 291 291 291
246 248 253 260 265 268 273 286 290 284 279 275 277 274 263 257 270 287 290 292 302 310 309 312 317 320 323 313 307 302 299 295 295 296 292 294 293 291 289 289 288 289 289 287
248 249 250 250 257 270 276 279 280 285 291 293 293 287 280 274 272 279 285 287 292 305 309 306 307 310 307 304 301 300 297 300 302 301 299 296 295 294 294 294 292 289 286 284
258 259 266 274 270 264 266 269 272 278 280 281 286 290 290 288 287 289 291 293 296 297 297 298 298 297 298 299 300 300 298 297 296 295 295 294 293 292 292 292 291 290 289 286